{"data":{"norad_id":47282,"intl_designator":"2020-100AA","name":"ONEWEB-0136","alt_names":[],"object_type":"PAYLOAD","status":"ACTIVE","operator":null,"country":"UK","launch_date":"2020-12-18","launch_site_code":"VOSTO","launch_vehicle":null,"mission":null,"orbit_class":"UNKNOWN","rcs_meters":null,"size_class":null,"mass_kg":null,"dimensions":null,"purposes":["comms"],"wikipedia_slug":null,"has_3d_model":false,"image_url":null,"decayed_at":null,"tle_current":{"epoch":"2026-09-20T04:23:37.328352Z","epoch_age_seconds":38535,"freshness":"FRESH","line1":"1 47282U 20100AA  26263.18307093  .00001229  00000+0  33799-2 0  9992","line2":"2 47282  87.8986 331.7932 0001672  90.2068 269.9252 13.12451738277129","mean_motion":13.12451738,"eccentricity":0.0001672,"inclination_deg":87.8986,"raan_deg":331.7932,"arg_perigee_deg":90.2068,"mean_anomaly_deg":269.9252,"bstar":0.0033799,"rev_number":27712,"period_min":109.71832017186,"perigee_km":1212.4202410376,"apogee_km":1214.9589478508,"semimajor_km":7591.8265944442,"source":"CELESTRAK","updated_at":"2026-09-20T09:00:44.580907Z"}}}